Retour au catalogue

CZ-6A DEB

ActifPO
NORAD 61293·DEBRIS·🇨🇳 China

Lancé Aug 6, 2024 depuis Taiyuan Satellite Launch Center

Loading…

Prochains Passages (prochaines 24 heures)

TLE

FraisSource: Space-Track

Époque: Sep 14, 2026, 06:56 UTC

1 61293U 24140TE  26257.28946248  .00003733  00000-0  69719-3 0  9998
2 61293  89.0367 263.1394 0087844 311.2185  48.1479 14.62284813108760

Suivez CZ-6A DEB en temps réel avec AllMySat

Download on the App Store